Regional Weather Roundup
Issued by NWS

Home | Current Version | Previous Version | Graphics & Text | Print | Product List | Glossary On
Versions: 1 2 3 4 5 6 7 8 9 10 11 12 13 14 15 16 17 18 19 20 21 22 23 24 25 26 27 28 29 30 31 32 33 34 35 36 37 38 39 40 41 42 43 44 45 46 47 48 49 50
000
ASUS43 KDTX 241501
RWRMI
MICHIGAN HOURLY REGIONAL WEATHER ROUNDUP
NATIONAL WEATHER SERVICE DETROIT/PONTIAC MI
1100 AM EDT THU JUL 24 2014

NOTE: "FAIR" INDICATES FEW OR NO CLOUDS BELOW 12,000 FEET WITH NO
SIGNIFICANT WEATHER AND/OR OBSTRUCTION TO VISIBILITY.

MIZ047>049-052>055-059>063-066>070-074>076-081>083-241600-
SOUTHEAST LOWER MICHIGAN

CITY           SKY/WX    TMP DP  RH WIND       PRES   REMARKS
ADRIAN         SUNNY     70  48  45 E9        30.14S
ALMA           SUNNY     65  52  62 N5        30.17S
ANN ARBOR      MOSUNNY   70  48  45 NE12      30.13S
BAD AXE        PTSUNNY   67  53  61 NE5       30.15S
CARO           SUNNY     68  57  68 N7        30.14S
DETROIT CITY   MOSUNNY   72  48  42 NE9       30.12F
DETROIT        MOSUNNY   70  49  47 NE9       30.13S
FLINT          SUNNY     71  50  47 MISG      30.14F
GROSSE ILE     MOSUNNY   72  46  40 NE13      30.11S
HILLSDALE      SUNNY     68  51  54 NE3       30.14F
HOWELL         SUNNY     67  49  51 N3        30.15S

CITY           SKY/WX    TMP DP  RH WIND       PRES   REMARKS
JACKSON        SUNNY     68  52  56 VRB5      30.15S
LAMBERTVILLE   SUNNY     70  50  49 NE10      30.12F
LANSING        SUNNY     68  54  60 NE6       30.16S
LAPEER         FAIR      68  48  49 N3        30.15S
MASON          SUNNY     66  54  65 NE5       30.15F
MONROE         SUNNY     70  52  52 NE6       30.10S
MT. CLEMENS    MOSUNNY   70  52  52 N9        30.11S
PONTIAC        MOSUNNY   69  46  43 N10       30.13S
PORT HOPE        N/A     66  58  75 CALM      30.13S
PORT HURON     MOSUNNY   66  54  63 NE9       30.13S
TRI CITIES     SUNNY     68  54  60 N6        30.16S
TROY           PTSUNNY   70  47  45 NE9       30.13F
SAGINAW HB     SUNNY     68  55  64 N7        30.14S
$$
MIZ043>046-050>051-056>058-064>065-071>073-077>080-241600-
SOUTHWEST LOWER MICHIGAN

CITY           SKY/WX    TMP DP  RH WIND       PRES   REMARKS
BATTLE CREEK   MOSUNNY   69  50  50 N8        30.16S
BENTON HARBOR  MOSUNNY   69  54  58 VRB7      30.15F
BIG RAPIDS     SUNNY     67  49  52 N7        30.17S
COLDWATER      SUNNY     69  53  55 NE7       30.15S
FREMONT        FAIR      66  50  57 N5        30.18S HAZE
HOLLAND        SUNNY     71  51  49 N5        30.17F
GRAND RAPIDS   MOSUNNY   68  52  56 CALM      30.17S
IONIA          FAIR      65  53  64 NE3       30.16S
KALAMAZOO      PTSUNNY   68  53  58 N5        30.17S
LUDINGTON      SUNNY     67  52  57 N6        30.18F
MARSHALL       SUNNY     66  52  59 NE5       30.15S
MOUNT PLEASANT SUNNY     66  51  58 CALM      30.16S
MUSKEGON       SUNNY     70  50  49 N6        30.18F
SOUTH HAVEN    MOSUNNY   68  55  64 E3        30.16F
$$
MIZ016>042-241600-
NORTHERN LOWER MICHIGAN

CITY           SKY/WX    TMP DP  RH WIND       PRES   REMARKS
ALPENA         SUNNY     67  50  54 W6        30.14S
BEAVER ISLAND  SUNNY     64  53  67 SW7       30.17F
BELLAIRE       SUNNY     67  51  55 N6        30.17S
CADILLAC       SUNNY     64  50  59 N5        30.17F
CHARLEVOIX     SUNNY     65  52  62 W12       30.20S
FRANKFORT      SUNNY     67  46  46 NW5       30.18F
GAYLORD        SUNNY     64  47  53 VRB5      30.17S
GRAYLING       SUNNY     69  51  51 NW8       30.17F
HARBOR SPRINGS MOSUNNY   65  55  69 W6        30.16S
HOUGHTON LAKE  SUNNY     65  49  56 N3        30.18S
MANISTEE       SUNNY     64  48  55 NW9       30.19F
OSCODA         SUNNY     70  49  46 NW5       30.14R
PELLSTON       SUNNY     66  51  58 NW10      30.16F
ROGERS CITY    SUNNY     66  54  66 NW8       30.15S
TRAVERSE CITY  MOSUNNY   67  49  52 N5        30.17S
$$
MIZ007>008-015-241600-
EASTERN UPPER MICHIGAN

CITY           SKY/WX    TMP DP  RH WIND       PRES   REMARKS
KINROSS        SUNNY     63  52  67 NW13      30.13F
MACKINAC ISLAN SUNNY     63  53  71 W3        30.15S
NEWBERRY       SUNNY     64  53  66 W3        30.15S
S. S. MARIE    SUNNY     62  51  67 NW8       30.13S
MUNISING         N/A     67  48  50 NW9       30.15F
$$
MIZ004>006-011>014-085-241600-
CENTRAL UPPER MICHIGAN

CITY           SKY/WX    TMP DP  RH WIND       PRES   REMARKS
MANISTIQUE     SUNNY     69  51  51 NW7       30.15F
ESCANABA       SUNNY     68  50  52 NW6       30.16F
MENOMINEE      SUNNY     66  46  48 CALM      30.17F
$$
MIZ001>003-009>011-084-241600-
WESTERN UPPER MICHIGAN

CITY           SKY/WX    TMP DP  RH WIND       PRES   REMARKS
IRON MOUNTAIN  SUNNY     68  51  54 NW6       30.16F
HOUGHTON       SUNNY     67  53  61 W9        30.13F
COPPER HARBOR    N/A     67  50  54 N12       30.11F
IRONWOOD       SUNNY     66  54  63 CALM      30.13S
$$

ABBREVIATIONS USED IN REMARKS
   TC - TEMPERATURE IN CELSIUS
  WCI - WIND CHILL INDEX
   HX - HEAT INDEX
  VSB - VISIBILITY




USA.gov is the U.S. government's official web portal to all federal, state and local government web resources and services.